Presure
178 174 179 169 168 181 201 203 184 185 174 183 177 178 175 178 174 172 174 179 167 170 175 181 183 185 185 175 177 178 183 186 190 185 172 145 131 134 125 129 127 129 127
183 181 174 162 174 169 179 173 172 170 179 174 173 174 181 171 178 175 172 169 167 166 170 174 180 179 180 182 183 184 188 187 193 190 190 192 184 142 138 137 140 129 126
163 173 172 179 155 169 171 175 163 165 166 164 167 162 161 165 165 164 164 169 167 163 164 169 170 169 178 182 181 182 186 185 189 190 188 192 193 192 193 201 204 206 211
177 176 169 178 167 169 171 177 178 164 144 166 164 164 161 161 160 153 158 159 161 166 170 177 167 167 175 192 178 176 186 186 213 214 208 216 218 216 217 214 231 196 212
169 161 168 165 172 156 148 161 169 173 171 161 155 172 158 156 155 154 167 154 161 175 192 199 178 198 201 189 211 211 176 172 213 203 198 193 204 234 197 206 207 215 216
163 166 167 161 153 161 163 165 169 172 161 156 159 171 166 173 190 172 192 185 195 173 199 205 191 200 172 195 169 190 200 184 192 167 183 189 189 199 214 199 202 211 212
171 176 167 169 167 161 163 167 156 181 159 159 178 159 187 166 170 177 186 184 165 182 172 183 207 195 173 183 221 216 166 217 163 143 174 180 165 189 194 185 181 191 202
172 170 170 173 166 156 158 174 189 179 182 175 179 172 172 172 181 171 182 162 167 193 201 203 171 176 195 187 203 194 180 187 168 202 206 170 218 189 169 165 171 174 175
174 172 165 170 170 183 179 173 177 161 173 163 174 169 167 183 166 177 171 171 191 191 186 193 177 145 198 153 167 190 176 197 194 167 184 216 194 197 164 206 230 178 200
171 171 185 170 175 174 174 168 169 178 162 170 178 151 175 157 153 157 184 155 148 168 147 191 173 140 199 200 179 192 189 164 179 219 159 205 268 170 244 234 255 245 220
174 181 186 183 172 163 151 172 175 169 169 159 171 162 158 172 173 173 163 165 178 168 172 177 173 185 178 158 186 158 178 178 206 194 201 206 173 157 253 221 252 211 236
153 173 181 178 170 179 186 173 170 172 177 162 141 157 182 181 186 172 184 167 155 178 176 155 174 161 182 183 185 195 171 193 204 189 170 165 237 237 227 231 175 162 195
181 174 137 173 174 158 165 171 170 127 166 157 160 179 138 176 163 165 153 153 169 179 148 178 162 190 145 192 219 167 179 166 187 222 189 163 237 168 228 228 233 229 225
173 181 156 151 178 168 153 166 155 161 146 166 160 153 173 153 156 170 160 170 159 172 147 158 172 139 151 190 159 155 185 164 184 151 137 203 159 230 215 222 223 227 208
171 181 159 157 162 174 161 152 164 163 159 159 172 164 171 166 166 173 150 166 175 144 169 167 162 149 157 170 174 194 167 170 156 179 158 226 187 228 176 186 239 203 237
172 182 159 160 160 164 170 163 156 171 172 172 161 174 161 177 158 180 149 165 139 156 154 173 161 156 152 153 183 206 205 172 159 201 159 188 198 195 173 223 230 230 221
170 168 91 162 169 173 153 168 169 160 186 164 168 120 184 156 168 153 154 128 170 158 129 167 161 164 174 181 175 159 137 192 178 169 172 150 222 202 222 227 144 181 222
165 173 153 160 157 164 165 174 167 139 152 149 170 170 171 152 145 146 156 144 148 161 130 150 159 169 171 153 179 159 250 159 171 199 198 138 155 149 172 217 229 233 224
172 155 169 188 177 169 164 134 169 165 146 141 166 174 149 138 155 143 147 146 146 144 168 175 156 189 144 182 140 183 219 211 178 165 127 173 178 151 206 180 230 231 235
165 159 170 165 156 169 163 163 154 153 164 145 147 167 153 149 166 153 130 126 155 202 151 174 161 154 156 179 181 198 256 192 171 173 202 207 203 225 212 201 209 179 217
161 175 165 166 122 79 174 154 147 170 143 172 163 156 143 150 148 148 162 164 187 142 189 179 159 148 178 170 182 143 224 224 223 216 194 208 214 229 219 206 212 230 223
165 168 169 168 84 160 164 153 188 166 171 164 172 172 151 137 169 174 157 176 157 151 148 193 187 197 197 198 147 217 226 235 237 216 206 222 231 238 224 210 221 219 225
180 173 161 171 174 181 175 168 162 178 181 179 143 169 187 146 152 168 144 163 174 182 176 167 177 140 180 191 206 196 224 222 214 222 215 222 217 232 227 224 230 224 230
139 71 149 150 163 174 150 150 178 159 164 171 163 167 148 154 170 154 148 150 151 194 188 152 190 164 193 158 194 202 212 235 213 221 213 225 225 233 235 238 231 231 238
163 172 153 179 162 160 158 178 159 172 180 147 144 151 140 161 185 144 158 169 170 191 170 195 189 186 174 206 199 188 212 234 205 218 224 227 222 236 246 247 250 248 255
164 160 169 173 170 147 162 165 157 169 192 146 157 150 150 148 174 159 203 167 143 192 184 195 186 182 181 197 205 206 221 233 224 221 234 254 126 273 259 261 264 246 240
Wind_Speed
26 24 22 24 25 23 17 13 17 17 24 20 24 27 32 28 33 33 33 31 43 42 43 46 52 58 63 71 73 75 76 79 82 89 95 100 90 92 85 90 88 90 91
20 18 18 23 18 21 15 14 16 22 20 21 22 23 22 29 27 31 36 40 43 48 48 49 52 58 60 62 65 68 69 72 75 81 85 87 94 101 100 100 101 92 91
23 18 19 17 26 20 19 17 21 18 19 22 21 27 32 30 31 34 39 41 44 49 53 56 56 59 56 59 64 65 65 69 74 74 78 79 83 86 88 87 89 94 98
17 15 16 18 22 21 15 14 20 24 41 25 28 30 33 35 38 47 47 46 47 49 53 53 57 60 58 54 64 64 64 68 48 51 60 57 61 67 73 76 64 90 82
17 20 16 18 15 29 37 22 20 22 25 28 37 30 38 43 46 50 46 51 50 48 44 39 51 40 44 51 42 41 62 65 40 53 60 65 57 49 70 70 72 69 74
19 18 18 21 31 24 22 22 21 22 28 33 33 32 36 38 35 43 33 35 33 45 35 35 38 39 57 46 59 49 46 55 49 74 66 64 64 57 53 65 69 66 66
14 14 18 18 20 28 26 22 28 23 31 37 27 41 25 39 37 35 35 39 51 37 42 38 28 33 52 45 27 31 65 39 67 73 66 61 74 68 60 69 73 67 67
15 16 17 18 22 29 29 24 17 17 19 20 23 27 28 30 33 35 33 40 36 36 33 32 38 39 32 40 41 38 50 50 61 38 41 65 46 62 73 76 77 81 78
13 15 20 23 23 20 18 21 19 26 21 26 25 25 29 34 31 35 38 40 35 36 35 33 38 59 38 59 55 42 49 44 47 56 36 50 31 54 78 51 54 78 70
16 19 22 25 27 23 19 22 23 21 25 27 32 26 34 29 31 30 37 35 46 40 45 39 34 56 53 46 36 37 38 59 49 54 61 41 53 64 56 55 46 51 58
20 22 24 21 18 17 20 24 25 28 29 26 27 33 37 38 44 40 42 41 39 39 42 39 40 49 47 39 49 61 38 38 55 40 66 55 55 73 55 59 43 57 43
20 20 21 20 20 25 28 26 26 30 33 30 15 35 34 38 38 39 39 41 35 49 48 44 49 36 53 54 55 69 36 54 58 50 56 52 65 53 48 48 61 81 55
22 24 15 23 25 21 23 26 29 29 30 28 32 35 30 39 39 42 36 38 45 49 46 53 47 66 46 67 40 51 57 54 45 63 61 59 65 51 53 58 49 51 50
27 28 22 23 25 25 24 27 27 27 34 34 41 39 35 39 42 44 47 47 45 51 39 49 64 42 45 58 47 51 77 45 74 66 50 68 72 59 54 49 53 54 58
26 29 26 27 27 26 29 34 33 33 40 35 34 42 41 46 42 46 40 46 51 37 53 63 56 54 54 51 78 75 63 49 50 61 65 60 49 60 55 68 55 64 56
28 28 26 29 29 32 31 31 36 27 33 33 39 39 43 44 37 43 40 51 35 53 56 65 61 54 59 54 80 57 65 66 50 73 59 59 61 63 63 59 57 56 53
27 25 36 29 30 30 34 31 30 36 32 35 39 32 38 37 41 44 48 36 65 60 38 67 67 76 78 76 73 56 62 75 82 56 65 63 61 69 69 65 41 49 55
26 30 30 30 36 33 32 33 33 37 36 44 44 42 44 44 50 49 54 54 56 68 37 55 72 78 90 47 86 68 80 54 69 59 67 47 66 72 71 74 62 50 55
28 29 32 31 27 32 30 26 37 35 42 44 46 45 45 49 48 44 54 50 60 55 75 82 64 82 43 87 47 71 74 63 61 58 45 74 60 64 71 77 72 65 52
28 29 32 34 33 32 30 32 33 36 41 37 51 41 46 53 60 54 43 38 70 63 64 82 81 51 68 80 81 90 82 85 86 66 75 78 78 69 71 77 74 58 59
30 37 27 32 20 15 29 37 43 35 54 37 39 43 57 55 60 61 67 72 66 51 65 71 75 50 86 62 93 53 89 68 66 69 87 82 77 67 71 77 72 74 67
30 35 33 35 14 36 33 38 37 38 40 36 41 47 53 61 60 64 73 76 71 77 70 78 78 82 87 92 44 95 81 65 66 71 80 78 73 64 71 78 76 73 69
38 34 35 37 38 42 33 41 41 32 45 45 48 50 46 67 71 69 59 78 76 84 86 85 80 42 86 94 98 94 94 76 67 73 81 85 79 76 66 70 77 75 78
37 14 33 38 40 41 40 44 39 47 48 49 51 52 67 71 61 79 77 73 82 87 88 80 90 92 93 71 97 99 108 80 76 81 81 84 86 89 82 74 75 77 78
41 41 45 46 41 49 54 38 59 45 48 54 59 65 61 77 76 70 85 86 97 89 88 88 85 87 83 102 104 96 111 92 85 85 85 89 89 95 92 78 74 75 74
45 47 44 43 47 49 51 50 52 45 50 58 66 75 77 78 76 72 89 82 55 100 100 99 100 93 90 103 109 103 113 86 86 89 87 93 42 84 83 81 75 67 64
Wind_Direction
262 271 271 278 288 299 312 291 285 279 271 268 263 260 257 257 258 257 258 263 252 254 256 259 257 257 256 252 252 252 254 255 255 254 251 252 256 255 259 259 261 261 261
269 273 274 273 290 287 302 283 278 270 275 277 272 269 273 260 265 260 253 249 249 249 251 254 254 253 253 254 255 257 259 260 261 259 258 258 255 254 256 257 256 258 258
264 264 270 267 267 279 278 273 262 264 266 259 259 253 251 254 253 254 251 253 252 255 257 256 258 260 264 263 260 261 262 264 264 263 261 261 261 260 260 261 262 263 262
261 263 272 273 269 273 273 287 257 254 271 259 258 256 255 257 255 253 254 256 259 262 264 269 264 263 265 265 264 263 264 265 267 266 262 265 266 265 264 264 266 260 261
271 260 255 261 270 273 271 260 267 266 263 264 265 272 255 256 257 260 265 267 270 268 268 263 265 267 267 260 270 272 264 264 277 269 260 261 264 274 261 262 261 263 263
249 246 255 260 264 263 264 268 277 274 261 264 265 274 275 270 268 271 276 272 281 268 282 280 272 276 264 273 265 263 264 260 263 266 260 269 260 259 264 261 262 262 262
257 267 260 267 262 267 272 273 270 277 271 271 273 271 275 277 279 279 288 285 272 288 280 282 279 281 268 269 297 285 260 290 262 266 268 262 266 267 262 261 262 262 262
268 265 275 276 273 274 277 285 306 296 299 292 289 283 289 295 292 291 288 280 282 295 302 297 279 275 286 270 296 278 268 260 257 278 284 264 287 266 261 263 262 261 266
268 279 279 279 284 290 294 298 301 286 299 296 300 294 299 302 302 299 296 296 307 308 301 303 285 273 311 268 278 280 265 289 254 260 253 322 253 272 270 271 275 260 263
290 286 256 286 295 303 311 299 294 304 291 306 303 275 300 300 290 299 296 296 276 301 277 314 290 278 324 317 284 303 262 265 257 298 267 323 311 266 288 285 282 279 268
285 285 279 295 300 287 288 306 302 304 306 302 298 309 293 295 296 290 288 296 308 303 309 310 311 316 313 278 308 277 273 280 325 261 298 312 292 276 299 283 285 268 274
307 302 301 313 307 306 302 307 301 300 305 309 319 312 303 304 307 302 310 309 303 321 319 292 316 298 320 318 301 325 275 312 318 273 258 258 309 302 304 290 282 272 276
314 317 318 314 311 310 319 315 310 273 305 288 302 297 273 302 301 309 304 310 318 320 291 318 313 322 272 322 302 320 313 269 309 306 278 257 305 292 302 293 287 281 279
311 299 303 310 312 312 313 310 318 309 331 307 307 320 304 316 316 310 318 321 316 319 301 317 319 273 293 311 282 283 318 295 326 277 268 296 258 303 308 290 287 285 278
312 301 315 315 317 306 316 323 306 303 307 309 302 308 307 309 305 312 300 316 319 304 314 318 318 296 309 305 328 309 292 309 257 322 250 300 283 304 306 283 295 281 279
307 297 312 310 311 307 306 310 311 305 304 308 311 308 305 307 310 310 316 321 296 317 319 315 317 314 307 300 316 313 310 323 271 313 257 295 310 313 274 295 291 286 280
308 306 326 314 310 302 316 303 298 310 323 310 311 292 323 315 314 317 319 291 315 315 287 314 320 320 315 313 311 312 282 312 321 311 289 267 297 298 292 296 283 286 277
311 309 307 306 302 300 299 317 301 330 303 316 322 317 323 311 315 317 314 313 315 314 283 309 309 320 319 302 318 319 317 296 314 296 299 296 283 277 291 295 291 284 275
303 305 307 296 298 299 308 317 317 320 314 318 317 318 310 322 310 311 311 312 314 313 309 309 319 325 298 312 272 316 318 306 289 308 289 292 293 292 291 284 293 288 283
302 302 296 295 303 306 308 307 303 304 309 317 320 315 299 309 305 310 306 310 316 330 312 309 321 314 319 320 314 326 313 309 313 307 294 293 292 289 283 290 289 275 273
301 303 303 302 307 342 309 302 308 304 307 312 309 300 311 314 316 317 311 312 329 312 324 322 321 314 311 324 311 288 321 298 292 290 301 292 291 287 280 284 285 288 279
296 300 299 300 325 301 301 302 310 303 310 301 298 294 304 322 300 299 316 305 312 315 316 323 322 327 326 324 293 318 317 316 306 295 301 295 297 292 280 281 281 282 282
289 291 306 296 297 295 300 302 306 315 304 296 311 302 312 316 313 307 317 324 313 322 317 320 325 300 314 322 321 317 319 311 313 310 301 301 295 297 285 280 281 279 282
315 333 302 318 316 299 314 319 300 316 315 310 307 297 316 312 308 310 314 314 315 333 329 316 326 312 322 316 319 321 323 311 311 308 303 298 296 295 291 283 278 278 278
307 293 322 293 315 325 330 305 329 302 294 305 314 314 314 312 303 315 304 317 311 338 306 330 327 323 319 321 319 315 319 312 306 308 306 300 295 294 292 284 280 277 278
310 314 300 302 306 321 317 311 314 303 325 312 312 316 317 316 315 322 335 315 316 338 331 330 323 318 318 320 321 318 318 312 307 304 303 295 286 289 286 285 281 276 274